This is the latest recevied weather packets stored in our database for station/object KN6WGU. If no packets are shown the sender has not sent any weather packets the latest 1 day(s).
| Time | Temp. | Humidity | Pressure | Rain* | Wind** | Luminosity | Snow |
|---|---|---|---|---|---|---|---|
| 1777990635 | 18.33° C | 65% | 998.9 hPa | 0 mm | 0.89 m/s, 121° | 145 W/m² | - |
| 1777990332 | 18.33° C | 65% | 999.1 hPa | 0 mm | 1.79 m/s, 178° | 174 W/m² | - |
| 1777990028 | 18.33° C | 67% | 999.5 hPa | 0 mm | 0.89 m/s, 159° | 138 W/m² | - |
| 1777989725 | 18.33° C | 66% | 999.1 hPa | 0 mm | 2.68 m/s, 170° | 153 W/m² | - |
| 1777989422 | 18.33° C | 65% | 999.1 hPa | 0 mm | 1.79 m/s, 199° | 150 W/m² | - |
| 1777989118 | 18.33° C | 65% | 999 hPa | 0 mm | 1.79 m/s, 235° | 130 W/m² | - |
| 1777988814 | 18.33° C | 66% | 998.8 hPa | 0 mm | 0.89 m/s, 242° | 133 W/m² | - |
| 1777988512 | 18.33° C | 66% | 998.9 hPa | 0 mm | 0.89 m/s, 155° | 278 W/m² | - |
| 1777988208 | 18.33° C | 68% | 998.8 hPa | 0 mm | 1.34 m/s, 159° | 262 W/m² | - |
| 1777987904 | 17.78° C | 68% | 998.9 hPa | 0 mm | 1.79 m/s, 202° | 219 W/m² | - |
| 1777987601 | 17.78° C | 68% | 998.8 hPa | 0 mm | 1.79 m/s, 185° | 104 W/m² | - |
| 1777987298 | 17.78° C | 68% | 998.7 hPa | 0 mm | 1.79 m/s, 207° | 67 W/m² | - |
| 1777986995 | 17.78° C | 69% | 998.8 hPa | 0 mm | 1.79 m/s, 184° | 62 W/m² | - |
| 1777986693 | 17.22° C | 70% | 998.8 hPa | 0 mm | 0.89 m/s, 166° | 58 W/m² | - |
| 1777986391 | 17.22° C | 70% | 998.6 hPa | 0 mm | 1.79 m/s, 158° | 47 W/m² | - |
| 1777986089 | 17.22° C | 70% | 998.6 hPa | 0 mm | 1.34 m/s, 180° | 52 W/m² | - |
| 1777985785 | 17.22° C | 70% | 998.6 hPa | 0 mm | 1.79 m/s, 183° | 75 W/m² | - |
| 1777985482 | 16.67° C | 70% | 998.9 hPa | 0 mm | 2.24 m/s, 271° | 82 W/m² | - |
| 1777985179 | 17.22° C | 70% | 998.9 hPa | 0 mm | 0.89 m/s, 161° | 76 W/m² | - |
| 1777984875 | 16.67° C | 70% | 998.8 hPa | 0 mm | 1.34 m/s, 144° | 83 W/m² | - |
| 1777984571 | 16.67° C | 70% | 998.8 hPa | 0 mm | 1.34 m/s, 223° | 81 W/m² | - |
| 1777984268 | 16.67° C | 69% | 998.6 hPa | 0 mm | 0.89 m/s, 172° | 72 W/m² | - |
| 1777983965 | 16.67° C | 69% | 998.7 hPa | 0 mm | 0.89 m/s, 164° | 65 W/m² | - |
| 1777983662 | 16.67° C | 69% | 998.9 hPa | 0 mm | 0.89 m/s, 242° | 53 W/m² | - |
| 1777983358 | 16.67° C | 69% | 998.7 hPa | 0 mm | 2.68 m/s, 158° | 37 W/m² | - |
* Rain latest hour (hover to see other rain measurements)
** Current wind speed in m/s (hover to see current wind gust speed)